When you browse on this site, cookies collect data to enhance your experience and personalize the content and advertising you see.
Visit our Privacy Policy to learn more. By continuing to use the site, you agree to this use of cookies and data.
  • în România
  • Lista ţărilor
  • Pe 7 zile
  • Temperatura apei
  • Hartă satelitară
  • Meteo pe hartă
  • Widget-uri
  • user-avatar
    Intrare

    Meteo pe oră la Sławno

    Astăzi, 21 Martie, Joi

    Timp Temperatura Precipitaţii Vânt Presiune Umiditate
    00:00 +5°C° 0 mm 5 m/s 769 mmHg 93%
    01:00 +5°C° 0 mm 4 m/s 769 mmHg 95%
    02:00 +5°C° 0 mm 4 m/s 769 mmHg 95%
    03:00 +5°C° 0 mm 4 m/s 769 mmHg 95%
    04:00 +5°C° 0 mm 4 m/s 769 mmHg 95%
    05:00 +5°C° 0 mm 4 m/s 769 mmHg 95%
    06:00 +5°C° 0 mm 5 m/s 769 mmHg 95%
    07:00 +5°C° 0 mm 5 m/s 769 mmHg 94%
    08:00 +5°C° 0 mm 5 m/s 769 mmHg 93%
    09:00 +6°C° 0 mm 5 m/s 769 mmHg 91%
    10:00 +5°C° 0 mm 6 m/s 769 mmHg 90%
    11:00 +5°C° 0 mm 6 m/s 769 mmHg 89%
    12:00 +7°C° 0 mm 6 m/s 769 mmHg 89%
    13:00 +7°C° 0 mm 6 m/s 769 mmHg 88%
    14:00 +7°C° 0.1 mm 6 m/s 769 mmHg 88%
    15:00 +8°C° 0.1 mm 6 m/s 769 mmHg 87%
    16:00 +8°C° 0.1 mm 6 m/s 768 mmHg 87%
    17:00 +8°C° 0 mm 6 m/s 768 mmHg 87%
    18:00 +8°C° 0 mm 7 m/s 768 mmHg 88%
    19:00 +8°C° 0 mm 7 m/s 768 mmHg 88%
    20:00 +7°C° 0 mm 6 m/s 768 mmHg 90%
    21:00 +7°C° 0 mm 6 m/s 769 mmHg 91%
    22:00 +7°C° 0 mm 6 m/s 769 mmHg 93%
    23:00 +7°C° 0 mm 5 m/s 769 mmHg 94%

    Mâine, 22 Martie, Vineri

    Timp Temperatura Precipitaţii Vânt Presiune Umiditate
    00:00 +6°C° 0 mm 5 m/s 769 mmHg 94%
    01:00 +6°C° 0 mm 5 m/s 770 mmHg 95%
    02:00 +6°C° 0 mm 4 m/s 770 mmHg 95%
    03:00 +5°C° 0 mm 3 m/s 770 mmHg 96%
    04:00 +6°C° 0 mm 2 m/s 770 mmHg 96%
    05:00 +6°C° 0 mm 2 m/s 771 mmHg 96%
    06:00 +7°C° 0 mm 1 m/s 771 mmHg 96%
    07:00 +7°C° 0 mm 1 m/s 772 mmHg 96%
    08:00 +8°C° 0 mm 1 m/s 772 mmHg 89%
    09:00 +8°C° 0 mm 2 m/s 772 mmHg 82%
    10:00 +10°C° 0 mm 2 m/s 773 mmHg 75%
    11:00 +12°C° 0 mm 2 m/s 773 mmHg 69%
    12:00 +13°C° 0 mm 2 m/s 773 mmHg 62%
    13:00 +14°C° 0 mm 2 m/s 773 mmHg 55%
    14:00 +14°C° 0 mm 2 m/s 772 mmHg 54%
    15:00 +15°C° 0 mm 1 m/s 772 mmHg 53%
    16:00 +15°C° 0 mm 1 m/s 771 mmHg 51%
    17:00 +14°C° 0 mm 2 m/s 771 mmHg 57%
    18:00 +12°C° 0 mm 2 m/s 771 mmHg 62%
    19:00 +10°C° 0 mm 2 m/s 770 mmHg 68%
    20:00 +9°C° 0 mm 2 m/s 770 mmHg 71%
    21:00 +9°C° 0 mm 2 m/s 770 mmHg 74%
    22:00 +9°C° 0 mm 3 m/s 769 mmHg 76%
    23:00 +8°C° 0 mm 3 m/s 769 mmHg 81%

    Poimâine, 23 Martie, Sâmbătă

    Timp Temperatura Precipitaţii Vânt Presiune Umiditate
    00:00 +8°C° 0 mm 3 m/s 768 mmHg 85%
    01:00 +8°C° 0 mm 3 m/s 768 mmHg 90%
    02:00 +8°C° 0 mm 3 m/s 767 mmHg 91%
    03:00 +7°C° 0 mm 4 m/s 767 mmHg 92%
    04:00 +6°C° 0 mm 4 m/s 766 mmHg 93%
    05:00 +7°C° 0 mm 4 m/s 766 mmHg 92%
    06:00 +7°C° 0 mm 4 m/s 766 mmHg 92%
    07:00 +7°C° 0 mm 4 m/s 766 mmHg 92%
    08:00 +10°C° 0 mm 4 m/s 766 mmHg 86%
    09:00 +12°C° 0 mm 4 m/s 765 mmHg 80%
    10:00 +13°C° 0 mm 4 m/s 765 mmHg 74%
    11:00 +13°C° 0 mm 4 m/s 765 mmHg 73%
    12:00 +13°C° 0 mm 5 m/s 765 mmHg 72%
    13:00 +13°C° 0 mm 5 m/s 765 mmHg 72%
    14:00 +12°C° 0 mm 5 m/s 765 mmHg 74%
    15:00 +10°C° 0 mm 5 m/s 765 mmHg 76%
    16:00 +9°C° 0 mm 5 m/s 765 mmHg 77%
    17:00 +8°C° 0 mm 5 m/s 766 mmHg 74%
    18:00 +7°C° 0 mm 5 m/s 766 mmHg 71%
    19:00 +6°C° 0 mm 5 m/s 767 mmHg 67%
    20:00 +6°C° 0 mm 5 m/s 767 mmHg 67%
    21:00 +5°C° 0 mm 5 m/s 768 mmHg 66%
    22:00 +3°C° 0 mm 5 m/s 768 mmHg 65%
    23:00 +3°C° 0 mm 5 m/s 768 mmHg 68%

    24 Martie, Duminică

    Timp Temperatura Precipitaţii Vânt Presiune Umiditate
    00:00 +3°C° 0 mm 4 m/s 769 mmHg 71%
    01:00 +3°C° 0 mm 4 m/s 769 mmHg 74%
    02:00 +2°C° 0 mm 3 m/s 769 mmHg 78%
    03:00 +2°C° 0 mm 3 m/s 769 mmHg 82%
    04:00 +3°C° 0 mm 2 m/s 769 mmHg 86%
    05:00 +3°C° 0 mm 2 m/s 769 mmHg 85%
    06:00 +4°C° 0 mm 1 m/s 769 mmHg 85%
    07:00 +4°C° 0 mm 1 m/s 769 mmHg 84%
    08:00 +5°C° 0 mm 1 m/s 769 mmHg 76%
    09:00 +7°C° 0 mm 1 m/s 769 mmHg 67%
    10:00 +7°C° 0 mm 0 m/s 769 mmHg 59%
    11:00 +8°C° 0 mm 1 m/s 768 mmHg 55%
    12:00 +9°C° 0 mm 1 m/s 768 mmHg 52%
    13:00 +8°C° 0 mm 2 m/s 768 mmHg 48%
    14:00 +8°C° 0 mm 2 m/s 767 mmHg 50%
    15:00 +7°C° 0 mm 2 m/s 767 mmHg 53%
    16:00 +7°C° 0 mm 2 m/s 766 mmHg 55%
    17:00 +6°C° 0 mm 2 m/s 766 mmHg 58%
    18:00 +6°C° 0 mm 1 m/s 765 mmHg 61%
    19:00 +4°C° 0 mm 0 m/s 765 mmHg 64%
    20:00 +5°C° 0 mm 1 m/s 764 mmHg 65%
    21:00 +5°C° 0 mm 1 m/s 764 mmHg 66%
    22:00 +3°C° 0 mm 2 m/s 764 mmHg 68%
    23:00 +3°C° 0 mm 2 m/s 763 mmHg 71%

    25 Martie, Luni

    Timp Temperatura Precipitaţii Vânt Presiune Umiditate
    00:00 +3°C° 0 mm 2 m/s 763 mmHg 74%
    01:00 +1°C° 0 mm 3 m/s 762 mmHg 78%
    02:00 +1°C° 0 mm 3 m/s 762 mmHg 79%
    03:00 0°C° 0 mm 4 m/s 761 mmHg 81%
    04:00 -1°C° 0 mm 4 m/s 760 mmHg 82%
    05:00 0°C° 0 mm 5 m/s 759 mmHg 80%
    06:00 -1°C° 0 mm 6 m/s 758 mmHg 78%
    07:00 0°C° 0 mm 7 m/s 758 mmHg 76%
    08:00 0°C° 0.5 mm 8 m/s 757 mmHg 77%
    09:00 +1°C° 0.5 mm 8 m/s 756 mmHg 79%
    10:00 +1°C° 0.5 mm 9 m/s 755 mmHg 80%
    11:00 +2°C° 0.9 mm 10 m/s 755 mmHg 72%
    12:00 +2°C° 0.9 mm 11 m/s 754 mmHg 64%
    13:00 +3°C° 0.9 mm 11 m/s 754 mmHg 57%
    14:00 +3°C° 0.3 mm 12 m/s 753 mmHg 58%
    15:00 +2°C° 0.3 mm 12 m/s 753 mmHg 59%
    16:00 +2°C° 0.3 mm 12 m/s 753 mmHg 61%
    17:00 +2°C° 0.3 mm 12 m/s 753 mmHg 63%
    18:00 +2°C° 0.3 mm 11 m/s 752 mmHg 66%
    19:00 +2°C° 0.3 mm 10 m/s 752 mmHg 68%
    20:00 +1°C° 0.2 mm 9 m/s 752 mmHg 69%
    21:00 +1°C° 0.2 mm 9 m/s 752 mmHg 69%
    22:00 +1°C° 0.2 mm 8 m/s 752 mmHg 70%
    23:00 +1°C° 0.2 mm 8 m/s 752 mmHg 69%

    26 Martie, Marţi

    Timp Temperatura Precipitaţii Vânt Presiune Umiditate
    00:00 +1°C° 0.2 mm 8 m/s 752 mmHg 68%
    01:00 +1°C° 0.2 mm 8 m/s 752 mmHg 67%
    02:00 0°C° 0 mm 8 m/s 752 mmHg 68%
    03:00 0°C° 0 mm 8 m/s 753 mmHg 68%
    04:00 0°C° 0 mm 9 m/s 753 mmHg 69%
    05:00 0°C° 0.3 mm 8 m/s 753 mmHg 70%
    06:00 0°C° 0.3 mm 8 m/s 754 mmHg 71%
    07:00 0°C° 0.3 mm 8 m/s 754 mmHg 72%
    08:00 0°C° 0.2 mm 9 m/s 755 mmHg 74%
    09:00 0°C° 0.2 mm 9 m/s 756 mmHg 76%
    10:00 +1°C° 0.2 mm 10 m/s 757 mmHg 78%
    11:00 +1°C° 0.1 mm 9 m/s 758 mmHg 76%
    12:00 +2°C° 0.1 mm 9 m/s 759 mmHg 74%
    13:00 +2°C° 0.1 mm 9 m/s 761 mmHg 72%
    14:00 +2°C° 0 mm 8 m/s 761 mmHg 73%
    15:00 +3°C° 0 mm 7 m/s 762 mmHg 74%
    16:00 +3°C° 0 mm 7 m/s 763 mmHg 75%
    17:00 +2°C° 0.3 mm 6 m/s 763 mmHg 78%
    18:00 +2°C° 0.3 mm 5 m/s 764 mmHg 80%
    19:00 +2°C° 0.3 mm 3 m/s 765 mmHg 83%
    20:00 +2°C° 0.2 mm 3 m/s 765 mmHg 81%
    21:00 +2°C° 0.2 mm 3 m/s 765 mmHg 79%
    22:00 +2°C° 0.2 mm 2 m/s 765 mmHg 76%
    23:00 +2°C° 0 mm 2 m/s 766 mmHg 77%
    Arată mai mult